Location: Harwich
(41.7160°N, 69.9939°W)
Time: 19:49:16
(UTC+01:00)

Transit 2A Rocket - All Passes

Search period start: 30 January 2023 00:00
Search period end: 09 February 2023 00:00
Orbit: 585 x 915 km, 66.7° (Epoch: 30 January)

Date Brightness Start Highest point End Pass type
(mag) Time Alt. Az. Time Alt. Az. Time Alt. Az.
30 Jan - 05:51:37 10° SSW 05:56:20 59° ESE 06:01:33 10° NE night (unlit)
30 Jan - 07:35:24 10° W 07:39:21 23° NW 07:43:38 10° N night (unlit)
30 Jan - 12:53:10 10° N 12:55:58 13° NE 12:58:49 10° ENE daylight
30 Jan - 14:34:00 10° NNW 14:39:54 54° NE 14:45:53 10° SE daylight
30 Jan - 16:17:14 10° NW 16:22:12 27° WSW 16:27:12 10° SSW daylight
31 Jan - 05:09:12 10° S 05:13:29 32° ESE 05:18:09 10° NE night (unlit)
31 Jan - 06:51:26 10° WSW 06:55:58 35° NW 07:00:56 10° NNE night (unlit)
31 Jan - 13:51:10 10° NNW 13:56:39 35° NE 14:02:11 10° ESE daylight
31 Jan - 15:33:39 10° NW 15:39:23 45° WSW 15:45:07 10° S daylight
01 Feb - 04:27:31 10° SSE 04:30:47 18° ESE 04:34:14 10° ENE night (unlit)
01 Feb - 06:07:53 10° SW 06:12:43 58° NW 06:18:04 10° NNE night (unlit)
01 Feb - 07:54:29 10° WNW 07:56:37 12° NNW 07:58:51 10° N night (unlit)
01 Feb - 13:08:28 10° N 13:13:14 24° NE 13:18:05 10° E daylight
01 Feb - 14:50:23 10° NW 14:56:26 74° WSW 15:02:29 10° SSE daylight
01 Feb - 16:36:28 10° W 16:38:03 11° W 16:39:38 10° WSW daylight
02 Feb - 05:24:46 10° SSW 05:29:37 83° ESE 05:35:02 10° NNE night (unlit)
02 Feb - 07:09:29 10° W 07:13:00 18° NW 07:16:42 10° N night (unlit)
02 Feb - 12:25:59 10° N 12:29:42 17° NE 12:33:28 10° ENE daylight
02 Feb - 14:07:19 10° NNW 14:13:21 71° ENE 14:19:27 10° SE daylight
02 Feb - 15:51:09 10° WNW 15:55:24 20° WSW 15:59:39 10° SSW daylight
03 Feb - 04:42:04 10° S 04:46:41 46° ESE 04:51:47 10° NE night (unlit)
03 Feb - 06:25:13 10° WSW 06:29:30 27° NW 06:34:09 10° NNE night (unlit)
03 Feb - 11:44:01 10° NNE 11:46:01 12° NNE 11:48:03 10° NE visible
03 Feb - 13:24:23 10° NNW 13:30:10 45° NE 13:36:00 10° SE daylight
03 Feb - 15:07:17 10° NW 15:12:38 33° WSW 15:17:59 10° S daylight
04 Feb - 03:59:55 10° SSE 04:03:54 26° ESE 04:08:13 10° NE night (unlit)
04 Feb - 05:41:26 10° SW 05:46:10 43° NW 05:51:22 10° NNE night (unlit)
04 Feb - 12:41:36 10° NNW 12:46:50 30° NE 12:52:08 10° ESE daylight
04 Feb - 14:23:51 10° NW 14:29:46 55° WSW 14:35:40 10° S daylight
05 Feb - 03:18:41 10° SE 03:21:15 14° ESE 03:23:55 10° ENE night (unlit)
05 Feb - 04:58:03 10° SW 05:02:58 72° WNW 05:08:26 10° NNE night (unlit)
05 Feb - 06:43:47 10° WNW 06:46:40 15° NW 06:49:40 10° N night (unlit)
05 Feb - 11:58:58 10° N 12:03:22 21° NE 12:07:50 10° E visible
05 Feb - 13:40:40 10° NNW 13:46:46 88° WSW 13:52:51 10° SSE daylight
05 Feb - 15:25:28 10° WNW 15:28:33 14° WSW 15:31:37 10° SW daylight
06 Feb - 04:15:06 10° SSW 04:19:56 66° ESE 04:25:19 10° NE night (unlit)
06 Feb - 05:59:10 10° W 06:03:05 21° NW 06:07:17 10° N night (unlit)
06 Feb - 11:16:36 10° N 11:19:47 14° NE 11:22:58 10° ENE visible
06 Feb - 12:57:38 10° NNW 13:03:38 59° NE 13:09:38 10° SE daylight
06 Feb - 14:41:03 10° NW 14:45:51 25° WSW 14:50:37 10° SSW daylight
07 Feb - 03:32:36 10° S 03:37:03 36° ESE 03:41:57 10° NE night (unlit)
07 Feb - 05:15:07 10° WSW 05:19:39 33° NW 05:24:37 10° NNE night (unlit)
07 Feb - 10:35:41 10° NNE 10:36:01 10° NNE 10:36:22 10° NNE visible
07 Feb - 12:14:46 10° NNW 12:20:23 38° NE 12:26:01 10° ESE visible
07 Feb - 13:57:23 10° NW 14:03:03 41° WSW 14:08:39 10° S daylight
08 Feb - 02:50:43 10° SSE 02:54:19 21° ESE 02:58:10 10° ENE night (unlit)
08 Feb - 04:31:29 10° SW 04:36:21 53° NW 04:41:45 10° NNE night (unlit)
08 Feb - 06:18:25 10° NW 06:20:23 12° NNW 06:22:23 10° N night (unlit)
08 Feb - 11:32:02 10° N 11:36:59 26° NE 11:41:59 10° E visible
08 Feb - 13:14:04 10° NW 13:20:07 68° WSW 13:26:07 10° SSE daylight
